Flag for Germany Weather past 2 weeks in Darmstadt, Hesse, Germany

Now
39 °F

Passing clouds.


Feels Like: 35 °F
Forecast: 34 / 38 °F
Wind: 6 mph from West

Location: Frankfurt-M-Flughafen Airport

Current Time: Dec 25, 2014 at 3:28:24 AM

Latest Report: Dec 25, 2014 at 2:50 AM


Visibility: N/A

Pressure: 30.18 "Hg

Humidity: 93%

Dew point: 37 °F

Location of DarmstadtLocation

Historic Weather in Darmstadt — Graph

°F

Darmstadt temperature yesterday

Maximum temperature yesterday: 48 °F (at 2:20 PM)
Minimum temperature yesterday: 41 °F (at 6:50 AM)
Average temperature yesterday: 45 °F

Past Weeks' High & Low Weather Summary

 TemperatureHumidityPressure
High57 °F (Dec 18, 7:50 PM)100% (Dec 10, 3:20 AM)30.48 "Hg (Dec 10, 3:20 AM)
Low32 °F (Dec 10, 2:20 AM)66% (Dec 20, 12:20 AM)29.59 "Hg (Dec 12, 6:20 PM)
Average43 °F87%30.03 "Hg
* Reported Dec 10 2:20 AM — Dec 25 2:20 AM, Darmstadt, Weather by CustomWeather, © 2014

Note: Actual official high and low records may vary slightly from our data, if they occured in-between our weather recording intervals... More about our weather records

Advertising

Darmstadt weather history for previous 24 hours

 ConditionsComfort  
Time TempWeatherWind HumidityBarometerVisibility
2:20 AM
Dec 25
43 °FPassing clouds.3 mph81%30.15 "HgN/A
1:50 AM45 °FPassing clouds.9 mph76%30.15 "HgN/A
1:20 AM45 °FPassing clouds.8 mph81%30.15 "HgN/A
12:50 AM45 °FPassing clouds.9 mph81%30.15 "HgN/A
12:20 AM45 °FPartly cloudy.3 mph87%30.12 "HgN/A
11:50 PM
Dec 24
45 °FLight rain. Partly cloudy.10 mph93%30.12 "HgN/A
11:20 PM46 °FLight rain. Partly cloudy.13 mph93%30.09 "HgN/A
10:50 PM46 °FLight rain. Partly cloudy.17 mph93%30.09 "Hg5 mi
10:20 PM48 °FLight rain. Partly cloudy.16 mph82%30.07 "HgN/A
9:50 PM48 °FPartly cloudy.20 mph82%30.09 "HgN/A
9:20 PM48 °FPartly cloudy.18 mph82%30.07 "HgN/A
8:50 PM48 °FPassing clouds.17 mph82%30.07 "HgN/A
8:20 PM46 °FLight rain. Passing clouds.17 mph87%30.07 "HgN/A
7:50 PM48 °FLight rain. Partly cloudy.17 mph82%30.07 "HgN/A
7:20 PM48 °FPartly cloudy.20 mph76%30.07 "HgN/A
6:50 PM48 °FPartly cloudy.15 mph76%30.07 "HgN/A
6:20 PM48 °FPartly cloudy.21 mph82%30.07 "HgN/A
5:50 PM48 °FLight rain. Partly cloudy.21 mph82%30.07 "HgN/A
5:20 PM48 °FLight rain. Passing clouds.20 mph82%30.07 "HgN/A
4:50 PM48 °FLight rain. Passing clouds.21 mph76%30.07 "HgN/A
4:20 PM48 °FPartly sunny.21 mph76%30.07 "HgN/A
3:20 PM48 °FPartly sunny.20 mph76%30.07 "HgN/A
2:50 PM48 °FPartly sunny.24 mph76%30.07 "HgN/A
2:20 PM48 °FBroken clouds.23 mph76%30.07 "HgN/A
1:50 PM46 °FOvercast.22 mph82%30.07 "HgN/A
1:20 PM46 °FPartly sunny.18 mph76%30.09 "HgN/A
12:20 PM46 °FPartly sunny.22 mph76%30.09 "HgN/A
11:50 AM46 °FBroken clouds.18 mph76%30.09 "HgN/A
11:20 AM46 °FBroken clouds.20 mph76%30.09 "HgN/A
10:50 AM46 °FBroken clouds.22 mph76%30.12 "HgN/A
10:20 AM45 °FBroken clouds.17 mph81%30.12 "HgN/A
9:50 AM45 °FPartly sunny.15 mph76%30.12 "HgN/A
9:20 AM43 °FPartly sunny.14 mph81%30.12 "HgN/A
8:50 AM43 °FPartly sunny.13 mph81%30.12 "HgN/A
8:20 AM43 °FPassing clouds.16 mph81%30.12 "HgN/A
7:50 AM43 °FPassing clouds.18 mph81%30.12 "HgN/A
7:20 AM41 °FPartly cloudy.14 mph87%30.12 "HgN/A
6:50 AM41 °FPassing clouds.14 mph87%30.12 "HgN/A
6:20 AM43 °FPartly cloudy.16 mph81%30.12 "HgN/A
5:50 AM43 °FLight rain. Partly cloudy.16 mph81%30.12 "HgN/A
5:20 AM43 °FPartly cloudy.18 mph81%30.12 "HgN/A
4:50 AM43 °FPartly cloudy.18 mph76%30.12 "HgN/A
4:20 AM43 °FPassing clouds.21 mph76%30.12 "HgN/A
3:50 AM43 °FPartly cloudy.18 mph81%30.12 "HgN/A
3:20 AM43 °FPartly cloudy.13 mph81%30.12 "HgN/A
Weather by CustomWeather, © 2014

See weather overviewHow to use our weather pages